Regional Weather Roundup
Issued by NWS

Home | Current Version | Previous Version | Text Only | Print | Product List | Glossary Off
Versions: 1 2 3 4 5 6 7 8 9 10 11 12 13 14 15 16 17 18 19 20 21 22 23 24 25 26 27 28 29 30 31 32 33 34 35 36 37 38 39 40 41 42 43 44 45 46 47 48 49 50

000
ASUS43 KLMK 290310
RWRKY
KENTUCKY REGIONAL WEATHER ROUNDUP
NATIONAL WEATHER SERVICE LOUISVILLE KY
1100 PM EDT SUN AUG 28 2016

NOTE "FAIR" INDICATES FEW OR NO CLOUDS BELOW 12,000 FEET
WITH NO SIGNIFICANT WEATHER AND/OR OBSTRUCTIONS TO VISIBILITY.

KYZ001>023-026-027-061>063-070>075-290400-
WESTERN AND SOUTH CENTRAL KENTUCKY

CITY           SKY/WX    TMP DP  RH WIND       PRES   REMARKS
PADUCAH        CLEAR     76  72  87 CALM      30.11R
HENDERSON      CLEAR     77  72  83 CALM      30.11F
OWENSBORO      MOCLDY    81  70  69 SE8       30.15S
HOPKINSVILLE   CLEAR     80  71  74 E8        30.14R
BOWLING GREEN  CLEAR     75  70  84 N3        30.15S
GLASGOW        CLEAR     72  72  99 CALM      30.16S
$$

KYZ024-025-028>034-038-045-046-053-290400-
NORTH CENTRAL KENTUCKY

CITY           SKY/WX    TMP DP  RH WIND       PRES   REMARKS
LOUISVILLE/SDF PTCLDY    78  68  71 VRB5      30.19R
LOUISVILLE/LOU MOCLDY    76  68  76 VRB5      30.20R
FORT KNOX      CLEAR     74  69  82 E5        30.17R
$$

KYZ035>037-039>044-047>052-055>060-089>105-290400-
NORTHEAST KENTUCKY

CITY           SKY/WX    TMP DP  RH WIND       PRES   REMARKS
LEXINGTON      PTCLDY    72  68  87 NE8       30.21R
COVINGTON      CLOUDY    72  71  97 NE15      30.24R
FRANKFORT      PTCLDY    73  68  84 CALM      30.19S
$$

KYZ054-064>069-076>088-106>120-290400-
SOUTHEAST KENTUCKY

CITY           SKY/WX    TMP DP  RH WIND       PRES   REMARKS
JACKSON        PTCLDY    72  69  90 CALM      30.21R
LONDON         PTCLDY    71  66  84 SE3       30.19S
SOMERSET       PTCLDY    70  70 100 CALM      30.20S
MIDDLESBORO    PTCLDY    71  70  95 CALM      30.20S
MONTICELLO     CLOUDY   N/A N/A N/A N8        30.19F
$$





USA.gov is the U.S. government's official web portal to all federal, state and local government web resources and services.